Overview Statistics Trail Chart Weather Telemetry Raw packets
 

This is the latest recevied weather packets stored in our database for station/object SQ9SMC-13. If no packets are shown the sender has not sent any weather packets the latest 10 day(s).

<< 52 53 54 55 56 57 58 >>
Time Temp. Humidity Pressure Rain* Wind** Luminosity Snow
1777349703 2.22° C 71% 1025 hPa 0 mm - 25 W/m² -
1777349406 2.22° C 71% 1025 hPa 0 mm - 21 W/m² -
1777349102 1.67° C 71% 1025 hPa 0 mm - 18 W/m² -
1777348803 1.67° C 72% 1024.7 hPa 0 mm - 15 W/m² -
1777348503 2.22° C 72% 1024.8 hPa 0 mm - 12 W/m² -
1777348203 2.22° C 72% 1024.7 hPa 0 mm - 9 W/m² -
1777347903 1.67° C 72% 1024.6 hPa 0 mm - 6 W/m² -
1777347603 1.67° C 72% 1024.6 hPa 0 mm - 5 W/m² -
1777347304 1.67° C 72% 1024.8 hPa 0 mm - 4 W/m² -
1777347003 1.67° C 73% 1024.7 hPa 0 mm - 2 W/m² -
1777346702 1.67° C 73% 1024.5 hPa 0 mm - 2 W/m² -
1777346408 1.67° C 73% 1024.5 hPa 0 mm - 1 W/m² -
1777346103 1.67° C 74% 1024.5 hPa 0 mm - 0 W/m² -
1777345806 1.67° C 75% 1024.3 hPa 0 mm - 0 W/m² -
1777345505 1.67° C 75% 1024.5 hPa 0 mm - 0 W/m² -
1777345202 1.67° C 76% 1024.4 hPa 0 mm - 0 W/m² -
1777344904 1.67° C 77% 1024.3 hPa 0 mm - 0 W/m² -
1777344602 1.11° C 80% 1024.4 hPa 0 mm - 0 W/m² -
1777344303 1.11° C 83% 1024.2 hPa 0 mm - 0 W/m² -
1777344003 0.56° C 86% 1024.3 hPa 0 mm - 0 W/m² -
1777343702 0° C 88% 1024.3 hPa 0 mm - 0 W/m² -
1777343403 0° C 88% 1024.4 hPa 0 mm - 0 W/m² -
1777343103 0° C 88% 1024.3 hPa 0 mm - 0 W/m² -
1777342807 0° C 87% 1024.5 hPa 0 mm - 0 W/m² -
1777342505 0.56° C 87% 1024.4 hPa 0 mm - 0 W/m² -

* Rain latest hour (hover to see other rain measurements)
** Current wind speed in m/s (hover to see current wind gust speed)